Location: Korczew
(51.3586°N, 19.4491°E)
Time: 21:35:57
(UTC+00:00)

Cosmos 1980 Rocket - Pass Details

Date: 19 May 2025
Orbit: 829 x 847 km, 71.0° (Epoch: 16 June)

Event Time Altitude Azimuth Distance (km) Brightness Sun altitude
Rises 22:30:44 0° 314° (NW) 3,383 6.1 -18.6°
Reaches altitude 10° 22:35:24 10° 279° (W) 2,443 4.7 -18.7°
Maximum altitude 22:36:38 11° 266° (W) 2,390 4.5 -18.7°
Drops below altitude 10° 22:37:53 10° 253° (WSW) 2,441 4.4 -18.7°
Enters shadow 22:39:07 - 241° (WSW) 2,591 4.5 -18.7°
